Flag for Australia Weather past 2 weeks in The Settlement, Christmas Island, Australia

Now
75 °F

Passing clouds.


Feels Like: 76 °F
Forecast: 75 / 77 °F
Wind: 14 mph from East

Location: Christmas Island Aerodrome

Current Time: Aug 1, 2015 at 11:14:14 PM

Latest Report: Aug 1, 2015 at 10:00 PM


Visibility: N/A

Pressure: 30.04 "Hg

Humidity: 78%

Dew point: 68 °F

Location of The SettlementLocation

Historic Weather in The Settlement — Graph

°F

The Settlement temperature yesterday

Maximum temperature yesterday: 79 °F (at 9:56 AM)
Minimum temperature yesterday: 75 °F (at 12:00 AM)
Average temperature yesterday: 76 °F

Past Weeks' High & Low Weather Summary

 TemperatureHumidityPressure
High81 °F (Jul 18, 12:00 PM)94% (Jul 20, 6:00 AM)30.09 "Hg (Jul 20, 6:00 AM)
Low73 °F (Jul 18, 2:00 AM)70% (Jul 18, 12:00 PM)29.89 "Hg (Jul 18, 5:00 PM)
Average76 °F82%29.99 "Hg
* Reported Jul 17 10:00 PM — Aug 1 10:00 PM, The Settlement, Weather by CustomWeather, © 2015

Note: Actual official high and low records may vary slightly from our data, if they occured in-between our weather recording intervals... More about our weather records

Advertising

The Settlement weather history for previous 24 hours

 ConditionsComfort  
Time TempWeatherWind HumidityBarometerVisibility
10:00 PM
Sat, Aug 1
75 °FPassing clouds.14 mph78%30.04 "HgN/A
9:00 PM75 °FPassing clouds.14 mph78%30.04 "HgN/A
8:00 PM75 °FMostly cloudy.14 mph78%30.01 "HgN/A
7:00 PM75 °FPassing clouds.14 mph74%29.98 "HgN/A
6:00 PM75 °FMostly cloudy.15 mph78%29.98 "HgN/A
5:00 PM77 °FMostly cloudy.14 mph79%29.95 "HgN/A
4:58 PM77 °FMostly cloudy.15 mph79%29.95 "HgN/A
4:00 PM77 °FPartly sunny.13 mph79%29.95 "HgN/A
3:00 PM77 °FPartly sunny.13 mph79%29.95 "HgN/A
2:00 PM79 °FMostly cloudy.14 mph74%29.95 "HgN/A
1:00 PM77 °FMostly cloudy.14 mph79%29.98 "HgN/A
12:00 PM77 °FOvercast.13 mph83%30.01 "HgN/A
11:00 AM77 °FPartly sunny.13 mph79%30.01 "HgN/A
10:00 AM77 °FCloudy.13 mph83%30.04 "HgN/A
9:00 AM75 °FCloudy.13 mph89%30.04 "HgN/A
8:00 AM75 °FCloudy.13 mph83%30.01 "HgN/A
7:00 AM75 °FPartly sunny.14 mph83%29.98 "HgN/A
6:04 AM75 °FMostly cloudy.13 mph83%29.98 "HgN/A
5:00 AM75 °FMostly cloudy.13 mph78%29.98 "HgN/A
4:05 AM75 °FPassing clouds.13 mph83%29.98 "HgN/A
3:55 AM75 °FPassing clouds.13 mph78%29.98 "HgN/A
3:00 AM75 °FPassing clouds.13 mph83%29.98 "HgN/A
2:53 AM75 °FPassing clouds.13 mph78%29.98 "HgN/A
2:00 AM75 °FPassing clouds.13 mph78%29.98 "HgN/A
1:00 AM75 °FPassing clouds.15 mph83%30.01 "HgN/A
12:02 AM75 °FPassing clouds.15 mph83%30.01 "HgN/A
11:00 PM
Fri, Jul 31
75 °FPassing clouds.14 mph83%30.01 "HgN/A
Weather by CustomWeather, © 2015

See weather overviewHow to use our weather pages